Voltar ao catálogo

CZ-4 DEB

AtivoSSO
NORAD 23259·DEBRIS·🇨🇳 China

Lançado Sep 3, 1990 de Taiyuan Satellite Launch Center

Loading…

Próximas Passagens (próximas 24 horas)

TLE

AtualizadoSource: Space-Track

Época: Sep 12, 2026, 05:42 UTC

1 23259U 90081CQ  26255.23785207  .00001015  00000-0  37259-3 0  9999
2 23259  98.5604 253.1479 0018868  92.4844 267.8501 14.34782147822707

Acompanhe CZ-4 DEB em tempo real com AllMySat

Download on the App Store